DMSP 5D-2 F11 DEB, 29078

Orbit data source: Space-Track

DMSP 5D-2 F11 DEB, 29078 is space debris in SSO originally from a launch on Thu, 28 Nov 1991 UTC launched from the Air Force Western Test Range (AFWTR). Debris objects in space refer to the collection of defunct objects orbiting the Earth. Examples of debris include non-operational satellites, rocket bodies, and fragments generated from explosions, collisions, or faulty payload assembly.

Loading next visibility...
Identifier
29078, 1991-082BZ
Orbit
SSO
Country
Flag of USUS
Related business
Manufacturer
Unknown
Mission
Spacecraft
Bus & Motor
Unknown
Mass
Unknown
Launch date (UTC)
1991-11-28 (34 years ago)
Launch vehicle
Unknown
Launch site
Air Force Western Test Range (AFWTR)
Object type
Payload
Rocket body
Debris
Shape & HBR
Unknown shape, 0.1 m
Radar Cross Section
Small (<0.1 m²)

Expand to show TLE details & history
Last TLE update: 8 hours ago

TLE from 8 hours ago
0 DMSP 5D-2 F11 DEB
1 29078U 91082BZ  26121.20825410  .00007004  00000-0  18867-2 0  9993
2 29078  98.6712 211.9003 0018253 129.5221 230.7588 14.48160329614011
Epoch: 2026-05-01T04:59Z
TLE epoch observation values (Epoch: 2026-05-01T04:59:53.154Z)
Latitude
-0°
Longitude
-82.21498°
Altitude
742.843 km
Speed
7.479 km/s
True Right ascension
14h 07m 36s
True Declination
0° 00' 00"
Sunlit
Object was in full shadow at epoch
Visualization orbit readout
Latitude
Unknown
Longitude
Unknown
Altitude
Unknown
Speed
Unknown
Apparent Right ascension
Unknown
Apparent Declination
Unknown
Sunlit
N/A
Visualization observer readout
Local Sidereal Time
20:53:53
Azimuth
Unknown
Elevation
Unknown
Doppler factor
Unknown
Orbital elements
Apogee altitude
741.755 km
Perigee altitude
715.81 km
Semi-major axis
7,106.92 km
Eccentricity
0.00183
Inclination
98.6712°
RAAN
211.9003°
Arg. of periapsis
129.5221°
True anomaly
230.59704°
Mean anomaly
230.7588°
Eccentric anomaly
230.6779°
Mean motion
3.62261 °/min
Orbital period
99.38 mins
BSTAR
0.0018867
Loading maneuver chart data...
Computing Atmospheric mass density...
Loading historical data...
Loading historical data...
Loading historical data...
Loading historical data...
Loading historical data...
Loading historical data...
Loading historical data...

Documentation

Showing up to 5 results
|